Wind_Speed
5 4 15 18 15 12 6 6 2 4 7 12 17 27 24 18 19 22 22 23 23 20 15 22 30 40 37 36 32 29 28 29 29 30 27 27 30 30 27 28 26 24 23 23
3 17 7 1 3 9 12 10 8 6 11 5 10 17 17 14 16 17 17 16 15 14 16 16 22 29 32 37 32 29 31 28 30 32 26 17 24 26 27 24 23 24 22 21
8 6 5 11 6 10 7 8 9 8 9 18 12 18 15 12 11 15 12 15 11 13 15 12 13 19 24 24 29 27 24 26 27 27 22 18 22 21 20 23 23 20 22 23
6 7 10 7 6 15 15 4 9 4 5 9 0 16 20 18 23 20 12 16 14 15 11 9 11 12 18 26 20 18 19 22 24 24 24 28 22 20 20 29 26 23 25 23
8 6 3 10 10 8 7 12 11 10 8 4 4 4 24 5 17 20 20 19 22 21 16 13 14 9 18 14 16 14 18 20 23 26 29 31 27 20 23 22 21 19 20 20
17 7 9 7 8 8 6 4 8 9 2 5 11 9 24 9 16 12 10 10 11 11 10 10 8 9 9 13 18 20 22 23 25 25 28 30 30 22 21 18 17 16 16 18
5 15 7 7 6 5 5 3 1 2 3 12 12 11 25 7 4 4 8 10 11 10 9 9 7 6 9 14 18 23 25 26 24 24 24 23 23 18 19 19 19 20 18 16
1 3 9 6 11 7 7 9 4 6 5 5 11 13 11 10 16 17 14 11 9 10 7 7 6 6 10 16 20 24 27 26 24 23 21 20 19 19 19 20 19 16 14 9
4 3 2 2 1 5 2 4 9 4 3 2 7 9 13 21 18 9 11 7 10 9 4 6 7 9 12 15 20 26 28 28 27 26 24 23 21 21 20 17 14 12 8 9
4 0 4 5 3 6 5 3 3 1 5 5 5 8 12 6 23 3 9 9 9 5 7 8 8 10 14 19 24 29 30 29 30 29 26 24 21 19 17 14 13 11 11 10
3 1 3 2 4 3 2 2 4 3 5 4 3 6 7 12 8 9 14 14 9 9 9 9 8 10 16 21 23 26 31 32 30 26 24 23 20 17 14 13 13 13 13 10
3 2 4 8 7 8 2 4 3 3 6 8 2 7 8 6 6 9 14 16 7 9 9 10 9 10 14 16 21 25 29 30 27 25 22 21 18 15 13 13 13 12 12 10
2 1 3 7 3 4 1 5 5 3 1 10 5 7 8 8 11 9 7 5 5 13 12 11 10 11 11 16 18 24 28 28 25 22 21 19 17 16 14 13 13 11 11 8
5 3 4 4 7 6 9 11 5 4 3 6 20 13 30 12 13 16 9 5 3 10 12 12 10 10 9 15 18 22 25 26 23 21 20 20 18 16 14 12 10 12 10 8
6 5 5 9 12 14 15 16 17 12 8 7 7 7 21 9 14 14 8 7 9 7 13 12 11 10 9 13 17 21 25 24 23 21 21 20 16 14 14 13 10 9 7 5
3 4 3 9 10 19 18 19 18 17 17 13 13 19 14 7 10 13 10 13 14 11 12 13 13 12 12 14 17 21 26 25 22 20 19 19 15 15 14 12 8 8 9 9
6 4 1 6 10 11 12 20 22 15 12 12 10 8 7 13 8 6 6 13 17 16 15 15 15 13 12 18 21 21 28 25 22 19 18 19 16 16 14 14 9 11 11 13
4 4 4 5 5 6 4 9 8 15 13 13 7 11 14 12 6 2 4 2 9 12 12 15 13 12 17 21 25 28 27 24 21 17 19 20 19 18 14 14 10 13 13 14
15 7 3 3 3 8 8 7 5 4 2 6 6 8 8 5 5 2 4 4 4 5 9 10 19 19 21 24 29 27 24 24 21 19 22 22 20 18 16 16 14 12 14 14
10 14 7 3 3 4 3 7 11 10 5 6 11 10 10 6 3 3 2 4 6 6 9 10 19 20 21 23 30 25 22 22 19 20 25 22 21 20 19 18 16 13 13 15
1 2 9 7 4 5 4 12 11 6 2 14 14 13 12 4 4 3 4 0 4 5 8 16 19 20 23 28 28 20 22 21 26 23 26 23 21 20 19 18 16 14 13 15
3 3 2 3 5 3 10 12 3 5 6 8 13 13 11 6 5 3 9 10 12 6 12 20 16 16 23 29 27 19 20 29 24 24 25 23 21 20 17 17 14 13 14 16
3 3 2 2 2 2 11 13 9 7 6 4 11 15 13 0 8 9 7 7 10 8 13 22 20 17 21 27 27 21 28 27 24 24 24 22 19 18 17 17 14 13 15 18
3 3 3 4 3 5 9 9 12 15 14 14 13 15 8 13 11 13 9 8 6 3 7 18 18 15 16 24 27 33 30 26 26 25 24 21 20 18 17 14 14 14 16 18
2 5 6 4 5 9 9 12 13 18 18 21 14 4 11 16 14 12 10 6 9 8 2 12 16 16 19 26 29 30 29 26 25 25 26 25 22 21 17 15 14 12 13 17
2 4 3 3 10 4 10 7 11 11 14 19 13 11 15 17 16 13 9 7 9 7 10 8 11 16 20 27 27 29 28 27 26 22 22 26 24 21 19 17 13 11 9 11
Wind_Direction
200 166 212 208 223 272 339 301 15 337 227 218 225 250 257 255 253 257 259 262 262 265 261 266 270 271 274 277 274 250 228 216 212 206 195 198 200 203 208 211 210 205 209 206
295 231 222 94 199 232 261 275 277 281 270 272 280 273 281 267 257 256 260 256 253 267 272 269 267 271 275 268 261 236 230 222 215 207 194 195 193 196 197 197 197 201 200 201
231 260 238 236 249 248 235 227 254 247 310 299 304 286 272 262 254 254 255 257 254 244 260 263 270 263 266 257 247 228 221 217 210 196 175 161 170 166 165 175 172 182 190 204
246 235 245 258 238 229 253 230 254 261 211 259 333 289 274 270 266 260 247 254 255 250 249 241 260 271 259 254 236 224 213 201 195 184 174 155 146 155 164 170 183 191 200 208
231 284 251 236 240 230 250 236 251 227 241 274 254 290 278 244 260 250 248 248 251 254 249 246 252 253 263 232 207 192 182 174 174 173 173 162 156 155 163 173 180 193 201 210
231 240 244 219 252 245 253 224 229 225 132 250 224 203 275 238 251 248 240 244 244 245 248 251 262 266 205 189 173 165 159 155 161 164 167 169 162 154 153 158 167 175 181 187
345 230 257 226 236 252 177 85 253 138 190 229 199 201 238 268 276 256 255 258 258 263 266 248 214 162 134 132 142 148 149 146 154 158 161 164 163 160 162 165 165 162 164 180
105 240 184 211 200 200 191 164 185 182 183 226 249 233 244 231 259 259 260 258 262 259 257 247 171 141 129 125 134 139 140 140 148 152 151 154 158 161 164 164 163 168 180 192
259 239 51 55 54 150 226 163 216 360 240 223 233 276 281 271 269 277 271 280 258 251 199 146 130 128 119 121 133 138 135 139 141 139 144 149 149 147 151 157 165 176 179 182
267 333 359 13 355 211 169 205 100 138 225 238 258 253 233 251 251 279 273 252 253 182 140 130 127 122 122 131 137 140 142 139 139 137 137 140 143 146 147 155 164 169 163 163
320 84 279 14 220 209 283 197 210 195 210 223 290 259 205 213 271 324 300 291 206 174 146 134 129 123 121 132 135 135 139 139 138 138 140 141 142 144 151 160 161 158 154 161
351 197 238 235 240 248 272 246 170 197 231 251 255 265 276 295 321 303 303 306 143 132 128 124 127 126 129 133 134 136 142 143 143 143 145 148 148 151 155 159 160 163 168 165
284 297 319 339 18 52 204 246 214 252 289 248 226 251 315 14 333 326 355 21 128 125 132 131 136 140 138 138 139 144 148 149 151 151 155 159 160 165 168 167 169 168 167 173
140 218 193 203 264 317 295 287 269 203 245 252 244 288 279 316 335 320 300 111 104 139 145 140 143 142 143 143 147 152 156 157 159 162 170 171 174 174 172 164 165 175 171 191
161 227 217 245 261 283 276 263 265 244 237 239 303 288 272 311 298 302 270 151 137 175 150 151 148 148 145 142 155 162 165 167 171 173 176 177 175 177 174 168 155 171 183 172
191 251 247 272 256 257 277 254 252 255 252 254 261 274 277 269 301 312 240 167 163 171 166 153 155 154 156 159 165 168 175 178 176 181 180 177 176 174 174 174 172 187 165 152
187 203 247 258 287 301 280 231 224 228 231 216 228 257 332 312 315 322 296 181 171 167 177 160 161 162 165 167 172 173 182 183 178 180 181 175 172 169 171 171 166 152 155 162
218 170 197 285 310 249 260 18 205 216 232 233 270 283 291 250 221 239 340 121 164 161 185 165 160 160 166 171 179 183 183 183 176 168 169 169 172 170 170 172 163 147 156 157
209 203 244 249 238 293 241 41 11 359 245 28 294 315 324 312 288 70 34 34 2 189 174 188 162 164 165 173 183 181 177 180 175 164 171 177 180 171 172 178 177 165 160 160
196 201 192 204 279 293 48 347 342 314 261 353 343 337 319 289 202 239 63 32 337 305 175 179 164 164 165 175 181 170 168 170 169 172 177 180 182 177 177 179 179 180 175 174
71 186 219 226 244 258 344 326 316 192 313 317 334 325 317 231 206 265 325 161 219 254 183 169 163 170 172 176 176 166 166 177 184 183 180 184 185 186 186 182 181 183 172 170
320 293 247 200 226 266 359 326 259 319 303 315 337 309 306 283 89 65 27 355 318 221 168 162 164 171 168 174 172 166 173 191 183 184 186 190 188 190 188 182 177 176 172 168
323 317 287 311 270 276 281 240 274 306 315 331 300 308 292 39 80 74 50 334 291 182 170 167 168 156 165 173 175 169 190 189 179 182 191 192 190 191 189 181 173 167 176 169
275 329 322 310 330 278 285 354 347 14 346 323 317 291 248 78 56 57 58 319 327 56 161 161 153 157 162 175 179 188 190 190 180 184 188 186 181 179 180 184 177 171 172 170
263 315 322 303 307 327 356 359 348 337 336 338 326 259 78 66 50 40 37 337 20 27 130 150 160 165 169 178 184 187 188 188 183 186 181 183 181 178 178 184 179 180 186 189
12 312 343 312 308 327 321 306 315 342 343 330 2 50 64 60 53 35 24 360 18 2 11 137 168 163 168 178 185 188 187 185 182 169 168 176 179 180 181 181 170 184 195 197
Height
734 745 736 727 729 730 735 737 740 729 720 722 720 707 702 701 699 695 689 685 681 678 675 671 668 664 662 660 660 660 662 664 669 675 680 685 686 690 697 703 708 711 716 722
739 730 727 724 728 734 737 742 745 735 726 725 721 714 700 696 691 687 684 682 678 674 669 666 662 658 656 653 651 654 655 659 662 668 673 678 683 689 694 701 705 709 713 719
743 730 722 728 732 735 737 740 742 744 731 721 726 713 701 689 684 680 676 671 670 668 665 662 657 653 650 648 646 647 650 654 659 666 672 676 683 690 695 700 704 709 714 717
735 725 725 729 730 732 739 730 731 733 741 747 719 726 700 685 678 673 673 666 662 658 656 655 652 647 643 641 644 647 649 653 659 666 672 676 677 685 691 696 702 708 712 716
730 725 724 726 725 723 730 727 730 731 738 740 736 749 666 675 677 665 659 657 649 646 647 647 644 641 639 639 643 647 652 654 661 664 669 675 680 686 691 697 703 707 712 716
721 716 718 721 718 719 718 724 728 732 742 756 729 742 673 677 662 656 655 653 648 645 643 641 637 636 637 638 642 646 651 655 661 665 670 675 681 687 692 697 701 706 710 715
719 719 713 712 722 717 721 734 750 756 757 733 713 727 669 665 657 655 654 648 643 639 639 636 636 637 638 640 645 648 652 658 663 667 673 678 683 687 691 696 701 706 710 715
733 727 712 704 713 719 724 732 745 740 739 726 708 704 671 650 641 638 637 638 636 635 633 632 634 637 638 642 647 651 655 659 665 670 676 681 685 688 692 697 701 706 710 713
730 718 702 704 704 710 716 727 716 728 721 731 704 679 659 642 641 640 636 635 635 632 634 635 636 638 641 646 651 653 657 663 668 673 679 684 687 690 695 700 703 707 710 712
728 729 715 708 705 705 711 708 727 734 731 730 704 690 666 649 637 643 642 638 633 634 636 637 639 641 645 649 653 656 661 667 672 677 683 686 690 694 698 701 704 707 710 712
730 732 724 715 715 717 715 718 717 717 722 720 711 685 651 650 644 646 637 627 630 634 635 637 641 644 648 653 656 660 664 670 676 681 685 689 692 696 699 702 706 708 710 712
733 741 740 721 710 705 708 710 713 723 714 705 706 676 635 642 643 642 630 620 625 631 636 640 645 647 651 657 659 663 669 673 678 683 687 691 694 697 700 703 706 709 711 713
737 745 743 727 713 712 715 710 711 715 715 708 708 674 637 648 646 639 637 634 632 631 639 643 648 650 654 658 663 667 671 676 681 684 688 692 695 698 701 704 707 709 711 713
734 740 735 741 730 723 726 714 710 713 723 700 678 678 644 656 658 647 637 635 638 635 640 644 650 652 656 660 665 669 673 677 682 685 689 692 696 699 702 705 707 709 712 713
734 739 734 729 725 725 723 717 710 707 703 706 684 684 652 662 654 645 635 636 639 644 641 645 650 654 658 662 667 671 674 678 682 686 689 693 697 700 703 706 708 710 712 713
737 738 726 724 721 719 717 706 702 696 691 689 686 673 657 650 644 638 630 631 635 642 643 643 648 653 658 662 666 671 675 678 682 686 691 694 697 700 703 706 709 710 711 713
738 733 733 725 705 714 701 680 682 681 680 679 682 665 652 650 645 644 634 626 627 633 640 640 646 652 657 661 665 670 674 678 682 686 690 693 697 700 703 707 709 710 712 713
729 732 733 718 718 715 672 669 665 671 666 665 663 659 656 644 643 638 636 630 631 633 642 638 643 651 657 661 666 670 674 678 682 686 690 693 697 700 704 707 709 711 712 714
716 723 722 719 708 694 674 683 686 681 668 670 667 660 655 643 641 637 634 634 637 632 638 642 639 648 655 660 665 669 674 677 682 686 689 693 697 700 703 706 709 711 713 715
701 709 714 710 708 689 683 690 691 688 675 670 664 659 655 650 651 643 632 632 635 637 635 641 642 648 654 659 664 669 674 677 682 685 689 693 696 699 702 705 709 711 713 715
706 711 709 708 706 689 693 697 695 676 674 670 662 656 652 645 642 635 628 630 632 632 634 639 644 646 651 658 664 668 673 677 680 684 689 693 696 698 702 705 708 710 713 715
711 708 694 697 692 685 701 696 676 679 673 669 663 660 651 642 634 632 624 620 625 628 632 637 643 648 651 657 662 667 672 675 680 684 689 692 696 699 702 705 708 710 712 715
710 714 710 707 700 709 704 697 684 677 674 672 669 658 653 642 638 635 638 639 638 627 630 634 640 646 651 657 660 666 670 675 680 684 688 692 696 699 703 705 707 709 712 715
712 707 706 703 699 695 689 684 674 669 673 666 662 654 648 637 637 637 646 645 637 630 629 632 639 644 650 656 659 662 669 675 679 683 688 693 697 700 704 707 708 709 712 715
718 713 709 702 696 689 687 685 682 674 665 657 654 649 641 636 638 640 642 646 635 632 638 634 636 641 647 652 657 663 668 674 678 682 687 693 697 701 704 707 709 710 713 715
720 714 710 709 701 699 695 693 688 685 674 663 656 650 645 641 640 642 647 646 637 643 637 634 639 640 644 651 657 663 668 672 677 682 687 691 697 701 704 707 709 712 714 717